Weather Roundup
Issued by NWS Springfield, MO

Current Version | Previous Version | Text Only | Print | Product List | Glossary On
Versions: 1 2 3 4 5 6 7 8 9 10 11 12 13 14 15 16 17 18 19 20 21 22 23 24 25 26 27 28 29 30 31 32 33 34 35 36 37 38 39 40 41 42 43 44 45 46 47 48 49 50
000
NZUS99 KSGF 301107
HRRSGF

HOURLY WEATHER
NATIONAL WEATHER SERVICE SPRINGFIELD MO
600 AM CDT TUE SEP 30 2014

......SGF CWA......

CITY           SKY/WX    TMP DP  RH WIND       PRES   REMARKS
SPRINGFIELD    CLEAR     60  56  86 S5        29.96S
JOPLIN         CLEAR     60  58  92 SE5       29.95S
WEST PLAINS    CLEAR     56  53  90 CALM      30.00S FOG
ROLLA          CLEAR     59  56  89 S7        29.95F
OSAGE BEACH    CLEAR     55  52  88 CALM      29.95S
BRANSON        PTCLDY    57  57 100 CALM      29.99R

......SURROUNDING SGF CWA......

CITY           SKY/WX    TMP DP  RH WIND       PRES   REMARKS
CHANUTE        PTCLDY    61  59  93 SE8       29.92F
PARSONS        CLEAR     57  57 100 E3        29.93F
COFFEYVILLE    CLEAR     57  56  96 E5        29.92F
EMPORIA        CLEAR     60  58  92 S8        29.92S
GROVE OK       CLEAR     59  59 100 CALM      29.95S
ROGERS AR      CLEAR     62  59  90 SE5       29.98S
SILOAM SPRINGS CLEAR     61  54  77 E6        29.97S
HARRISON AR    CLEAR     57  56  96 SE3       29.99S
NEAR YELLVILLE CLEAR     57  52  82 CALM      29.98S

......KANSAS AND MISSOURI......

CITY           SKY/WX    TMP DP  RH WIND       PRES   REMARKS
KANSAS CTY INT MOCLDY    63  58  83 SE8       29.92S
DOWNTOWN KC    PTCLDY    65  59  81 CALM      29.92S
COLUMBIA       CLEAR     62  56  80 S3        29.95F
SEDALIA        CLEAR     63  57  81 S3        29.95S
ST JOSEPH      MOCLDY    57  56  96 CALM      29.91F
ST LOUIS       CLEAR     64  58  80 CALM      29.96S
SPIRIT OF STL  CLEAR     54  54 100 CALM      29.95S
KIRKSVILLE     CLEAR     59  58  96 NE6       29.97S FOG
WICHITA        MOCLDY    63  57  81 S8        29.90S
TOPEKA         PTCLDY    62  59  90 CALM      29.91S
OLATHE         PTCLDY    63  58  83 SE5       29.92F

......TENNESSEE......

CITY           SKY/WX    TMP DP  RH WIND       PRES   REMARKS
MEMPHIS        CLEAR     65  59  81 CALM      29.94R
NASHVILLE      CLEAR     60  58  92 CALM      29.96R

......ARKANSAS.......

CITY           SKY/WX    TMP DP  RH WIND       PRES   REMARKS
FAYETTEVILLE   CLEAR     53  53 100 CALM      29.98S
FT SMITH       CLEAR     63  60  90 E3        29.94F
LITTLE ROCK    CLEAR     64  60  87 CALM      29.96R

......OKLAHOMA.......

CITY           SKY/WX    TMP DP  RH WIND       PRES   REMARKS
TULSA          PTCLDY    60  57  89 E6        29.92S
PONCA CITY     CLEAR     62  58  86 SE6       29.91R
MCALESTER      PTCLDY    64  60  87 E3        29.93S
OKLAHOMA CITY  PTCLDY    65  59  81 S7        29.91S

......IOWA............

CITY           SKY/WX    TMP DP  RH WIND       PRES   REMARKS
DES MOINES     CLOUDY    58  55  90 E9        29.96F

......ILLINOIS........

CITY           SKY/WX    TMP DP  RH WIND       PRES   REMARKS
QUINCY         CLEAR     57  55  93 NE7       29.96S FOG
CHICAGO        DRIZZLE   48  46  93 N9        30.05R FOG




USA.gov is the U.S. government's official web portal to all federal, state and local government web resources and services.